カタログに戻る

SCOUT X-1 R/B

運用中UNKNOWN
NORAD 82·ROCKET BODY·🇺🇸 United States

打ち上げ Feb 16, 1961 から Wallops Flight Facility

Loading…

次のパス (今後24時間)

TLE

最新Source: Space-Track

元期: Sep 7, 2026, 04:38 UTC

1 00082U 61004B   26250.19359377  .00000066  00000-0  78316-4 0  9991
2 00082  38.8643  55.1696 1166760 263.1215  83.5643 12.27937920 86884

AllMySatでSCOUT X-1 R/Bをリアルタイム追跡

Download on the App Store